Temperature
0 1 1 1 1 1 1 2 2 3 3 3 3 3 3 4 3 3 3 3 3 3 3 3 3 4 4 4 4 5 5 5 5 5 5 5 5 5 5 5 6 6 6 6
-1 1 1 1 1 1 1 2 2 2 2 3 3 3 3 3 3 2 2 2 2 2 2 2 3 3 3 4 4 4 4 4 4 4 4 4 5 5 5 5 5 5 5 5
-1 1 1 -0 -0 0 0 1 1 1 1 2 2 2 1 2 2 2 1 1 1 1 1 2 2 2 3 3 3 4 4 4 4 4 4 4 4 4 4 4 4 4 5 5
-1 -1 -2 -1 0 0 0 -0 0 0 1 1 1 1 1 1 1 1 1 1 0 1 1 1 1 2 2 2 3 3 3 3 3 3 3 3 3 3 4 4 4 4 4 4
-2 -2 -1 -1 -1 -1 -1 -1 -1 -1 -0 0 0 0 0 0 0 0 0 0 0 0 0 1 1 1 2 2 2 2 2 2 2 2 3 3 3 3 3 3 3 3 3 3
-2 -2 -2 -2 -1 -0 -0 -1 -2 -1 -1 -1 -1 -1 -1 -1 -1 -1 -0 -0 -0 -0 -0 0 1 1 1 1 2 2 2 2 2 2 2 2 2 2 2 2 2 2 2 2
-3 -3 -2 -3 -2 -1 -2 -3 -2 -2 -2 -2 -2 -2 -2 -2 -1 -1 -1 -1 -1 -1 -0 -0 -0 0 1 1 1 1 1 1 2 1 1 1 1 1 1 1 1 1 1 2
-3 -4 -4 -3 -3 -3 -4 -3 -3 -3 -3 -3 -3 -3 -3 -2 -2 -2 -2 -1 -1 -1 -1 -1 -1 -0 0 0 0 1 1 1 1 1 1 1 1 1 1 1 1 1 1 1
-4 -4 -4 -4 -4 -4 -4 -4 -4 -4 -4 -4 -4 -4 -3 -3 -3 -3 -3 -3 -2 -2 -2 -2 -1 -1 -1 -0 -0 0 0 0 0 0 0 0 0 0 0 0 0 0 0 0
-4 -4 -4 -4 -5 -5 -5 -5 -5 -4 -4 -4 -4 -4 -4 -4 -4 -4 -4 -3 -3 -3 -3 -3 -2 -2 -1 -1 -1 -0 -0 -1 -1 -1 -0 -0 -0 -0 -0 -0 -0 -0 -0 -0
-5 -5 -5 -5 -5 -5 -5 -5 -5 -5 -5 -5 -5 -5 -4 -4 -4 -4 -4 -4 -4 -4 -3 -3 -3 -2 -2 -2 -1 -1 -1 -1 -1 -1 -1 -1 -1 -1 -1 -1 -1 -1 -1 -0
-6 -6 -6 -6 -6 -6 -6 -6 -6 -5 -5 -5 -5 -5 -5 -5 -5 -5 -5 -5 -4 -4 -4 -4 -3 -3 -3 -2 -2 -2 -2 -2 -2 -2 -2 -2 -2 -2 -2 -2 -2 -1 -1 -1
-6 -6 -6 -6 -6 -6 -6 -6 -6 -6 -6 -6 -6 -6 -5 -6 -6 -5 -5 -5 -5 -5 -5 -4 -4 -4 -4 -3 -3 -3 -3 -3 -3 -3 -3 -3 -3 -3 -3 -2 -2 -2 -2 -2
-7 -7 -7 -7 -7 -7 -7 -7 -7 -7 -6 -6 -6 -6 -6 -6 -6 -6 -6 -6 -6 -5 -5 -5 -5 -5 -4 -4 -4 -4 -3 -4 -4 -4 -4 -4 -3 -3 -3 -3 -3 -3 -3 -3
-7 -7 -7 -7 -7 -7 -7 -7 -7 -7 -7 -7 -7 -7 -6 -6 -7 -6 -6 -6 -6 -6 -6 -6 -6 -5 -5 -5 -5 -4 -4 -4 -4 -4 -4 -4 -4 -4 -4 -4 -4 -4 -4 -3
-8 -8 -8 -8 -8 -8 -8 -8 -8 -8 -8 -8 -7 -7 -7 -7 -7 -7 -7 -6 -6 -6 -6 -6 -6 -6 -6 -5 -5 -5 -5 -5 -5 -5 -5 -5 -4 -4 -4 -4 -4 -4 -4 -4
-8 -8 -8 -8 -8 -8 -8 -8 -8 -8 -8 -8 -8 -8 -7 -7 -7 -7 -7 -7 -7 -7 -7 -7 -6 -6 -6 -6 -6 -6 -6 -5 -5 -5 -5 -5 -5 -5 -5 -5 -5 -5 -5 -5
-8 -8 -8 -8 -9 -9 -9 -9 -9 -9 -8 -8 -8 -8 -8 -8 -8 -8 -8 -8 -7 -7 -7 -7 -7 -7 -6 -6 -6 -6 -6 -6 -6 -6 -6 -6 -6 -5 -5 -5 -5 -5 -5 -5
-8 -8 -8 -9 -9 -9 -9 -9 -9 -9 -9 -8 -8 -8 -8 -8 -8 -8 -8 -8 -8 -7 -7 -7 -7 -7 -7 -7 -7 -7 -7 -6 -6 -6 -6 -6 -6 -6 -6 -6 -6 -6 -6 -6
-9 -9 -9 -9 -9 -9 -9 -9 -9 -9 -9 -9 -9 -8 -8 -8 -8 -8 -8 -8 -8 -8 -8 -8 -7 -7 -7 -7 -7 -7 -7 -7 -7 -7 -7 -7 -7 -7 -6 -6 -7 -7 -7 -7
-9 -9 -9 -9 -9 -9 -9 -9 -9 -9 -9 -9 -9 -9 -9 -9 -8 -8 -8 -8 -8 -8 -8 -8 -8 -8 -8 -8 -8 -8 -8 -7 -7 -7 -7 -7 -7 -7 -7 -7 -7 -7 -7 -7
-9 -9 -9 -9 -9 -9 -9 -10 -10 -10 -10 -9 -9 -9 -9 -9 -9 -9 -9 -9 -9 -8 -8 -8 -8 -8 -8 -8 -8 -8 -8 -8 -8 -8 -8 -8 -8 -8 -8 -8 -8 -8 -8 -7
-10 -10 -10 -10 -10 -10 -10 -10 -10 -10 -10 -10 -10 -10 -10 -10 -9 -9 -9 -9 -9 -9 -9 -9 -8 -8 -8 -8 -8 -8 -8 -8 -8 -8 -8 -8 -8 -8 -8 -8 -8 -8 -8 -8
-10 -10 -10 -10 -10 -10 -10 -10 -10 -10 -10 -10 -10 -10 -10 -10 -10 -10 -10 -10 -10 -9 -9 -9 -9 -9 -9 -9 -9 -9 -9 -9 -9 -9 -9 -9 -9 -9 -9 -9 -9 -8 -8 -8
-10 -10 -10 -10 -10 -10 -10 -10 -10 -10 -10 -10 -10 -10 -10 -10 -10 -10 -10 -10 -10 -10 -9 -9 -9 -9 -9 -9 -9 -9 -9 -9 -9 -9 -9 -9 -9 -9 -9 -9 -9 -9 -9 -9
-10 -10 -10 -11 -11 -11 -11 -11 -11 -10 -10 -10 -10 -10 -10 -10 -10 -10 -10 -10 -10 -10 -10 -10 -10 -10 -10 -9 -9 -9 -9 -9 -9 -9 -9 -9 -9 -9 -9 -9 -9 -9 -9 -9
-11 -11 -11 -11 -11 -11 -11 -11 -11 -11 -11 -11 -11 -11 -11 -11 -11 -11 -10 -10 -10 -10 -10 -10 -10 -10 -10 -10 -10 -10 -10 -10 -10 -10 -10 -10 -10 -10 -10 -10 -10 -9 -9 -9
Wind_Speed
6 6 4 5 5 3 1 2 1 2 2 5 5 5 5 5 5 6 5 6 6 5 5 4 4 3 3 4 3 3 4 4 3 4 4 4 4 5 5 5 5 4 5 4
6 5 3 4 6 5 4 3 3 4 4 5 6 6 6 6 5 5 5 5 5 5 5 4 4 3 3 3 3 3 4 3 3 4 4 4 4 4 4 4 4 4 4 5
3 4 3 3 4 3 2 2 3 3 5 6 7 7 6 5 5 5 5 5 5 5 5 4 4 3 2 2 3 3 3 3 3 4 4 4 4 4 4 4 4 4 4 4
3 3 1 0 4 4 3 3 6 5 6 6 6 6 5 6 5 5 5 5 4 4 4 4 4 3 2 2 3 3 3 3 3 4 4 4 4 4 3 3 3 3 3 3
2 2 2 2 6 6 4 2 7 7 8 8 7 6 5 8 7 5 4 4 3 3 3 4 3 3 3 2 3 3 3 3 3 3 4 4 3 3 3 3 3 3 3 3
2 1 1 4 9 9 3 2 9 9 9 8 7 4 4 9 9 7 6 4 4 4 4 4 4 3 4 3 3 2 2 2 2 3 3 4 3 3 2 3 3 3 3 3
3 2 1 6 11 7 3 4 9 8 8 7 5 3 5 8 8 7 6 5 5 4 4 4 4 3 3 3 3 2 2 3 3 3 3 3 3 3 3 3 3 3 3 2
2 1 2 8 7 5 4 6 7 8 7 7 6 6 6 7 7 7 7 6 6 5 5 5 5 4 4 4 3 3 3 4 3 3 3 3 3 3 3 3 3 3 3 2
1 1 3 5 4 5 6 7 7 7 7 6 6 6 7 7 6 6 6 6 5 5 5 6 6 5 4 4 3 3 4 4 3 3 3 3 3 3 3 2 3 3 3 2
1 2 4 6 6 8 8 7 7 7 7 6 6 6 6 6 5 5 6 6 5 5 6 6 6 6 5 4 3 4 4 3 3 3 3 3 3 2 2 2 2 2 2 2
2 3 4 5 7 9 9 8 8 8 7 7 6 6 5 5 5 5 5 6 5 5 5 6 6 6 6 5 4 4 4 3 3 3 3 3 3 3 2 1 1 2 2 2
3 4 4 6 8 9 8 8 8 8 8 7 6 5 5 4 5 5 5 5 5 6 5 5 6 6 6 6 5 4 4 3 3 3 3 3 3 4 6 4 4 3 2 1
3 5 5 5 7 8 7 7 7 7 7 7 6 5 4 4 4 5 5 5 5 5 5 6 6 6 7 6 5 5 4 3 3 3 3 3 2 3 3 4 6 5 3 2
4 4 4 5 6 7 6 6 6 7 7 6 5 5 5 5 5 5 5 5 5 5 5 6 6 6 6 6 5 5 5 4 3 2 2 2 2 2 2 2 2 2 4 4
5 4 4 5 6 6 6 6 6 7 7 7 6 5 5 5 5 5 5 5 5 6 6 6 6 6 6 6 5 5 4 3 3 2 2 2 2 2 2 2 2 2 2 3
6 5 4 5 6 6 6 6 6 6 6 6 6 6 5 4 4 4 5 5 5 6 6 6 6 6 6 5 5 4 4 5 4 3 3 2 2 2 2 1 1 1 2 2
4 5 5 5 6 5 5 5 5 5 6 5 6 5 5 5 5 5 5 5 4 5 5 5 5 5 6 5 5 4 3 4 5 4 3 3 2 2 1 1 1 1 1 1
3 3 4 4 4 5 5 5 5 5 5 5 5 5 4 4 4 4 4 4 4 5 5 5 5 5 5 5 4 3 3 3 3 3 3 3 2 2 2 1 1 1 1 2
3 3 4 4 4 4 4 4 5 5 5 4 4 4 3 3 3 3 3 3 4 4 4 4 7 6 5 5 5 3 3 3 3 3 3 3 3 2 2 2 1 1 1 2
4 4 4 4 4 4 4 4 4 4 4 4 4 4 4 4 3 3 3 3 3 2 3 4 4 4 4 4 5 3 3 3 3 3 3 2 2 2 2 2 1 1 1 1
4 4 4 4 5 4 4 4 4 4 5 4 4 4 3 4 3 3 3 3 3 3 4 5 4 3 3 4 5 3 3 2 2 2 2 2 2 2 2 2 2 2 2 2
3 4 4 4 4 4 4 3 3 4 4 4 4 4 4 4 4 3 2 2 3 5 4 2 2 4 5 5 3 2 2 2 2 2 2 2 2 2 2 2 2 2 2 2
3 3 3 4 4 4 4 4 3 3 3 4 4 4 3 3 3 3 3 3 3 5 4 3 4 6 6 4 2 2 2 2 2 2 2 2 2 2 2 2 2 3 2 3
3 3 3 3 3 3 4 4 4 3 3 3 3 3 3 3 3 2 2 4 6 6 3 4 6 6 5 3 2 2 2 2 2 2 2 2 2 2 2 2 3 3 3 3
3 3 3 3 3 3 4 4 4 4 3 3 4 4 3 2 3 3 3 3 5 5 3 4 6 6 3 2 2 2 2 2 2 2 2 2 2 3 3 3 3 3 3 3
3 3 2 3 3 3 3 3 3 3 3 4 4 3 3 3 3 3 3 3 4 5 4 3 3 3 2 2 2 2 2 3 3 3 2 3 3 3 3 3 4 3 3 4
3 2 2 3 3 3 3 3 3 4 4 4 4 4 3 3 3 3 3 3 3 3 3 3 2 2 2 2 2 2 2 2 2 2 2 3 3 3 3 4 4 4 4 5
Wind_Direction
302 304 316 330 334 336 312 271 245 303 351 356 2 3 6 18 32 43 41 35 28 24 26 37 39 53 68 77 83 91 101 111 118 125 124 122 124 128 131 134 139 142 142 142
298 291 301 330 336 328 314 308 303 317 326 358 9 18 16 19 30 32 25 24 23 21 25 27 31 49 60 72 78 91 104 112 112 116 116 118 120 123 127 129 132 137 149 150
292 312 323 324 341 331 313 327 316 310 323 352 8 8 2 8 15 19 11 9 17 20 20 20 20 44 65 75 91 95 101 107 113 120 121 120 117 120 128 132 132 140 149 151
286 324 262 17 5 342 333 16 4 354 349 356 360 351 359 22 16 10 6 2 8 16 18 12 14 33 56 79 100 101 97 100 110 118 123 123 125 132 134 130 138 144 149 153
283 263 255 2 348 336 319 339 8 353 346 348 350 355 19 19 12 4 5 3 12 20 22 19 18 30 57 78 97 103 104 105 111 124 125 123 125 133 131 133 134 136 148 155
293 284 322 348 329 317 288 329 2 353 349 352 360 358 343 353 357 0 9 18 29 29 32 29 16 30 55 66 74 81 97 104 103 113 121 125 129 124 118 129 139 140 143 152
287 267 40 351 333 347 46 331 337 347 352 1 5 345 327 340 352 5 16 26 38 43 38 27 17 34 52 57 54 52 78 90 90 96 103 112 110 106 112 114 120 125 127 129
326 315 322 351 1 21 340 333 344 351 356 359 350 344 347 353 359 10 18 29 36 40 33 25 23 38 51 49 44 54 69 75 73 82 85 98 107 100 107 120 126 128 124 113
318 316 350 359 8 353 348 343 346 348 347 348 344 343 348 352 1 9 18 23 29 43 38 26 22 34 48 37 46 60 70 72 70 75 79 88 104 113 117 124 136 138 136 138
302 346 358 1 4 0 355 348 342 343 343 348 344 342 344 351 2 11 14 21 27 39 39 28 23 28 30 24 40 70 75 73 77 77 74 69 73 89 109 128 139 141 142 144
305 329 342 354 356 352 348 349 349 350 353 351 347 344 345 356 7 13 17 18 25 33 34 26 25 27 22 21 38 65 73 74 73 76 83 79 69 61 70 60 134 148 149 149
293 321 318 312 332 342 346 349 351 352 352 352 353 350 2 14 14 20 24 23 26 30 31 26 28 27 21 22 36 63 73 67 73 80 83 87 81 61 52 58 62 61 75 107
297 319 309 308 332 344 344 346 350 349 346 347 355 1 13 21 21 26 28 27 25 26 27 27 28 26 21 21 29 44 60 59 66 75 84 90 94 92 70 48 54 60 62 65
334 333 324 331 330 334 338 343 352 357 358 359 2 10 21 25 26 27 26 23 22 26 29 30 28 23 19 23 32 41 50 48 51 66 72 76 82 89 98 95 59 38 39 50
344 340 314 316 330 339 346 354 360 360 360 3 9 15 19 23 21 21 22 23 23 24 26 27 24 16 14 25 34 40 45 49 50 54 61 68 68 71 73 71 73 59 39 33
318 323 327 333 337 341 350 355 355 350 351 354 3 6 6 14 19 20 20 24 25 19 16 18 15 9 14 25 29 35 42 40 38 49 54 53 56 63 63 62 64 61 45 24
324 323 325 327 330 335 342 344 344 340 343 347 351 351 358 9 14 15 15 16 19 17 16 14 10 11 18 23 26 31 35 34 31 39 45 43 43 50 51 53 53 44 24 9
313 309 311 311 322 332 337 342 344 343 338 338 345 351 0 7 2 358 358 6 16 17 12 9 12 15 19 22 26 29 34 36 34 36 36 32 27 27 37 41 38 31 10 3
335 335 337 339 338 332 332 337 340 341 338 343 348 349 352 357 358 355 2 12 8 358 356 7 10 18 20 19 20 32 36 34 30 31 32 26 21 24 24 22 16 6 359 1
349 349 350 349 352 351 344 342 344 343 343 346 349 353 360 359 1 2 6 5 352 335 345 0 11 17 15 13 14 30 32 29 27 24 22 20 18 12 6 3 1 352 352 352
339 343 346 347 346 347 345 344 345 341 343 350 352 349 346 347 354 358 359 350 351 2 4 2 11 10 7 3 8 19 20 17 16 16 12 7 5 0 357 355 348 337 333 330
327 332 333 336 339 338 339 342 340 337 341 347 347 346 345 343 346 350 344 324 335 346 357 359 359 355 354 356 5 12 9 4 2 7 6 358 353 347 346 343 333 326 323 319
311 314 319 325 325 324 330 334 333 335 334 337 338 337 335 331 334 336 332 340 350 347 351 346 342 346 350 358 1 1 357 355 353 349 344 338 333 328 325 325 319 317 317 317
310 315 316 318 327 334 329 326 327 328 323 321 325 326 326 327 329 330 325 329 335 334 338 333 337 340 347 357 357 352 345 341 338 333 332 328 322 315 311 309 309 310 308 307
307 309 315 324 326 317 313 320 326 326 325 323 323 325 322 314 307 315 321 324 324 328 329 330 335 338 347 344 341 332 325 318 315 318 321 320 314 310 307 305 302 300 299 298
304 305 303 300 301 309 317 322 320 320 323 322 324 325 321 315 307 307 310 312 313 320 324 319 323 327 327 320 320 318 316 316 320 321 312 308 304 302 298 296 294 293 291 293
307 308 311 315 317 321 320 316 311 312 314 311 311 313 314 314 314 314 313 316 318 315 314 313 315 314 316 317 317 314 312 308 305 303 300 296 293 291 290 290 293 295 295 295
Height
1460 1456 1455 1455 1453 1451 1451 1449 1451 1448 1446 1446 1445 1444 1443 1442 1442 1442 1442 1442 1441 1441 1441 1441 1441 1441 1442 1443 1444 1446 1447 1450 1452 1454 1457 1460 1462 1465 1467 1470 1472 1474 1477 1479
1462 1456 1454 1455 1454 1453 1452 1451 1450 1448 1449 1447 1446 1445 1444 1444 1443 1443 1443 1443 1442 1441 1441 1440 1441 1441 1441 1442 1444 1445 1446 1448 1450 1453 1455 1457 1460 1462 1464 1467 1469 1472 1474 1476
1463 1456 1454 1459 1459 1457 1456 1454 1453 1453 1454 1449 1447 1447 1446 1446 1445 1444 1444 1444 1442 1442 1441 1440 1441 1441 1441 1442 1443 1444 1445 1447 1449 1451 1453 1455 1458 1460 1462 1464 1466 1469 1471 1473
1465 1462 1467 1464 1459 1458 1456 1456 1456 1455 1453 1451 1450 1448 1447 1447 1446 1444 1444 1443 1442 1441 1440 1440 1440 1440 1440 1441 1442 1443 1444 1446 1448 1449 1451 1453 1455 1457 1460 1462 1464 1466 1468 1470
1467 1465 1462 1462 1461 1460 1459 1458 1459 1457 1454 1452 1450 1447 1447 1447 1446 1445 1444 1443 1442 1441 1440 1439 1439 1439 1440 1440 1441 1443 1444 1445 1446 1448 1450 1452 1453 1455 1458 1459 1461 1463 1465 1467
1468 1467 1470 1470 1463 1458 1458 1460 1461 1459 1456 1454 1451 1451 1451 1448 1446 1444 1443 1442 1441 1440 1439 1438 1438 1439 1439 1439 1440 1442 1443 1444 1446 1447 1449 1450 1452 1454 1456 1458 1459 1461 1463 1465
1472 1471 1470 1472 1465 1460 1467 1470 1464 1461 1458 1456 1455 1456 1453 1449 1446 1444 1443 1441 1440 1439 1439 1438 1438 1438 1438 1439 1440 1441 1442 1443 1444 1446 1447 1449 1451 1453 1455 1456 1458 1460 1462 1463
1475 1476 1478 1473 1468 1471 1472 1468 1465 1462 1459 1457 1455 1453 1451 1448 1446 1444 1442 1441 1440 1439 1438 1438 1437 1437 1437 1438 1439 1440 1441 1442 1443 1445 1446 1448 1450 1451 1453 1455 1456 1458 1460 1461
1480 1482 1478 1475 1474 1473 1470 1468 1465 1462 1460 1457 1455 1453 1450 1448 1446 1444 1443 1441 1440 1439 1438 1438 1437 1437 1437 1438 1438 1439 1440 1441 1442 1444 1445 1447 1449 1450 1452 1453 1455 1456 1458 1459
1479 1477 1477 1475 1474 1472 1470 1468 1465 1462 1460 1457 1455 1452 1450 1448 1446 1445 1443 1441 1440 1439 1438 1438 1438 1438 1437 1438 1438 1438 1439 1441 1442 1443 1444 1446 1447 1449 1450 1451 1453 1454 1455 1456
1480 1479 1477 1475 1474 1472 1470 1467 1464 1461 1459 1457 1454 1452 1450 1448 1446 1445 1443 1442 1441 1440 1439 1438 1438 1438 1438 1438 1438 1438 1439 1440 1441 1442 1443 1444 1446 1447 1449 1450 1451 1452 1453 1454
1483 1480 1479 1477 1474 1472 1469 1466 1463 1461 1458 1456 1454 1452 1450 1448 1447 1445 1444 1443 1441 1440 1439 1439 1438 1438 1438 1438 1438 1438 1438 1439 1440 1441 1442 1443 1444 1446 1447 1449 1450 1451 1452 1453
1482 1479 1478 1476 1474 1471 1469 1466 1463 1461 1458 1455 1453 1452 1450 1448 1447 1446 1444 1443 1442 1441 1440 1439 1439 1438 1438 1438 1438 1438 1438 1439 1440 1441 1442 1442 1443 1444 1445 1447 1448 1450 1451 1451
1480 1478 1476 1474 1472 1470 1468 1465 1463 1460 1458 1456 1454 1452 1450 1448 1447 1446 1445 1444 1443 1442 1441 1440 1439 1439 1439 1439 1438 1438 1438 1439 1439 1440 1441 1442 1443 1444 1444 1445 1446 1447 1448 1449
1478 1477 1475 1473 1471 1469 1467 1464 1462 1459 1458 1456 1454 1452 1450 1449 1448 1447 1446 1445 1444 1443 1442 1441 1440 1440 1440 1439 1439 1438 1438 1438 1439 1440 1440 1441 1442 1443 1444 1444 1444 1445 1446 1447
1477 1475 1473 1472 1470 1468 1466 1464 1461 1459 1458 1456 1454 1452 1451 1450 1448 1447 1446 1446 1444 1443 1443 1442 1441 1441 1440 1440 1439 1438 1438 1439 1439 1440 1440 1441 1442 1442 1443 1443 1444 1444 1445 1446
1475 1473 1471 1470 1468 1466 1465 1463 1461 1460 1457 1456 1454 1452 1451 1449 1448 1447 1446 1446 1445 1444 1444 1443 1442 1442 1441 1440 1439 1439 1439 1439 1439 1440 1440 1440 1441 1441 1442 1442 1443 1443 1444 1445
1474 1472 1471 1469 1467 1465 1464 1462 1461 1459 1457 1455 1454 1452 1450 1449 1448 1447 1447 1446 1446 1445 1444 1444 1443 1442 1441 1441 1440 1440 1439 1439 1439 1440 1440 1440 1440 1441 1441 1441 1442 1442 1442 1443
1472 1470 1469 1468 1466 1464 1463 1461 1459 1458 1456 1455 1453 1452 1450 1449 1449 1448 1447 1446 1445 1444 1444 1444 1443 1442 1442 1441 1441 1440 1440 1439 1439 1439 1439 1440 1440 1440 1440 1440 1440 1441 1441 1441
1471 1469 1468 1466 1465 1463 1462 1460 1459 1457 1456 1454 1453 1451 1450 1449 1449 1448 1447 1446 1445 1445 1444 1444 1443 1442 1442 1442 1441 1440 1440 1440 1439 1439 1439 1439 1439 1438 1439 1439 1439 1439 1439 1439
1470 1468 1467 1465 1464 1462 1461 1460 1458 1456 1455 1453 1452 1451 1450 1449 1448 1447 1446 1445 1445 1445 1444 1444 1443 1442 1442 1441 1441 1440 1440 1439 1439 1439 1438 1438 1438 1437 1437 1437 1437 1437 1437 1437
1469 1467 1466 1464 1463 1461 1460 1459 1457 1456 1454 1453 1451 1450 1449 1448 1447 1446 1446 1445 1445 1444 1443 1443 1442 1441 1441 1441 1440 1440 1439 1439 1438 1438 1437 1437 1437 1436 1436 1436 1436 1436 1435 1435
1468 1466 1465 1463 1462 1460 1459 1458 1456 1455 1453 1452 1450 1449 1448 1447 1447 1446 1445 1445 1444 1443 1442 1442 1441 1441 1440 1440 1439 1439 1438 1437 1437 1437 1436 1436 1435 1435 1435 1434 1434 1434 1433 1433
1466 1465 1463 1462 1461 1459 1457 1456 1455 1453 1452 1451 1449 1448 1447 1446 1445 1445 1444 1443 1442 1442 1441 1440 1440 1439 1439 1438 1438 1437 1437 1436 1435 1435 1435 1434 1434 1433 1433 1433 1432 1432 1431 1430
1464 1463 1461 1460 1458 1457 1456 1454 1453 1452 1450 1449 1448 1447 1446 1445 1444 1443 1443 1442 1441 1440 1439 1439 1438 1437 1437 1436 1436 1435 1435 1434 1434 1433 1433 1432 1432 1431 1431 1430 1430 1429 1428 1428
1462 1461 1459 1458 1457 1455 1454 1452 1451 1450 1448 1447 1446 1445 1444 1443 1443 1442 1441 1440 1439 1438 1437 1437 1436 1435 1435 1434 1434 1433 1433 1432 1432 1431 1431 1430 1430 1429 1428 1428 1427 1426 1426 1425
1460 1459 1457 1456 1455 1453 1452 1451 1449 1448 1447 1445 1444 1443 1442 1441 1441 1440 1439 1438 1437 1436 1435 1435 1434 1433 1433 1432 1432 1431 1431 1430 1430 1429 1428 1428 1427 1426 1426 1425 1424 1424 1423 1422